Regional Weather Roundup
Issued by NWS Wakefield, VA

Current Version | Previous Version | Text Only | Print | Product List | Glossary On
Versions: 1 2 3 4 5 6 7 8 9 10 11 12 13 14 15 16 17 18 19 20 21 22 23 24 25 26 27 28 29 30 31 32 33 34 35 36 37 38 39 40 41 42 43 44 45 46 47 48 49 50
000
ASUS41 KAKQ 020410
RWRAKQ

REGIONAL WEATHER ROUNDUP
NATIONAL WEATHER SERVICE WAKEFIELD VA
1200 AM EDT TUE SEP 02 2014

Note: "fair" indicates few or no clouds below 12,000 feet with no
significant weather and/or obstructions to visibility. * = Denotes
station may not report precipitation (e.g., rain,snow,etc.),
thunder or fog.

VAZ042-051-052>054-056-020500-
NORTHERN VIRGINIA

CITY           SKY/WX    TMP DP  RH WIND       PRES   REMARKS
WASH NATIONAL  MOCLDY    81  74  79 S8        29.97S
DULLES         PTCLDY    76  73  91 W3        29.98R
FORT BELVOIR   PTCLDY    75  74  97 CALM      29.97F
QUANTICO       PTCLDY    79  72  79 W7        29.98S
FREDERICKSBRG* CLEAR     81  72  74 SW8       29.98S
STAFFORD*      PTCLDY    79  75  86 W5        30.02S
WARRENTON      NOT AVBL
CULPEPER*      CLEAR    N/A N/A N/A CALM      29.99S
MANASSAS*      MOCLDY    75  75 100 CALM      29.98S
LEESBURG*      MOCLDY    77  77 100 W5        29.99S
WINCHESTER     PTCLDY    79  64  61 W5        30.00S
$$

VAZ048-049-060>072-079>083-020500-
CENTRAL AND SOUTH CENTRAL VIRGINIA...AND NORTH CENTRAL NORTH CAROLINA

CITY           SKY/WX    TMP DP  RH WIND       PRES   REMARKS
RICHMOND       PTCLDY    82  70  66 SW7       30.00F
CHESTERFIELD*  CLEAR     79  63  57 W6        30.03S
PETERSBURG*    CLEAR     76  69  79 SW3       30.02S
HANOVER        CLEAR     82  70  66 SW7       30.01F
TAPPAHANNOCK*  CLEAR     77  68  72 CALM      30.00S
CHARLOTTSVILLE PTCLDY    77  69  76 SW5       30.02S
ORANGE*        PTCLDY    73  70  88 W5        30.02S
LOUISA*        CLEAR     77  70  78 CALM      30.01S
FARMVILLE*     CLEAR     75  70  83 SW3       30.01S
SOUTH HILL*      N/A     75  75 100 CALM      30.09S
ROANOKE RAPIDS CLEAR     75  72  88 SW7       30.03S
RALEIGH        PTCLDY    78  70  76 SW6       30.05F
$$

VAZ088>098-020500-
SOUTHEAST VIRGINIA

CITY           SKY/WX    TMP DP  RH WIND       PRES   REMARKS
NORFOLK        PTCLDY    80  71  74 S5        30.01S
VIRGINIA BEACH MOCLDY    81  76  84 S10       30.01S
NORFOLK NAVAL  PTCLDY    83  70  64 VRB6      30.02S
WEST POINT*    CLEAR     82  70  68 CALM      30.01S
NEWPORT NEWS   CLEAR     83  70  64 SW7       30.01S
LANGLEY AFB    CLEAR     81  69  67 SW8       30.00S
FORT EUSTIS    CLEAR     80  68  67 S5        29.99F
WILLIAMSBURG*  CLEAR     82  72  69 W5        30.01F
FRANKLIN*      MOCLDY    77  72  83 S6        30.02S
WAKEFIELD      PTCLDY    76  70  82 CALM      30.02S
$$

VAZ020-022-025-037-045-020500-
WESTERN AND SOUTHWEST VIRGINIA

CITY           SKY/WX    TMP DP  RH WIND       PRES   REMARKS
STAUNTON*      PTCLDY    76  64  66 CALM      30.08R
HOT SPRINGS VA CLEAR     67  60  78 W13       30.23S
LYNCHBURG      CLEAR     70  68  93 CALM      30.07F
DANVILLE       CLEAR     74  69  85 SW3       30.06R
MARTINSVILLE   CLEAR     70  70 100 CALM      30.10S
ROANOKE        PTCLDY    74  67  78 NE3       30.10R
BLACKSBURG     CLEAR     72  68  88 CALM      30.16S
DUBLIN*        CLEAR     70  67  88 CALM      30.16S
MARION*        MOCLDY   N/A N/A N/A CALM      30.20F
HILLSVILLE*    CLEAR     70  66  88 SW3       30.19R
RICHLANDS*     CLOUDY    78  66  68 S3        30.17S
WISE*          CLEAR     70  64  83 SW6       30.18F
ABINGDON*      MOCLDY    72  69  90 CALM      30.16S
$$

MDZ021>025-VAZ099-100-020500-
SOUTHERN MARYLAND AND THE DELMARVA PENINSULA

CITY           SKY/WX    TMP DP  RH WIND       PRES   REMARKS
PATUXENT RIVER CLEAR     78  73  84 SW6       29.98S
BAY BRIDGE APT   N/A     79  77  94 SE5       29.97S
LEONARDTOWN    CLEAR     77  72  83 CALM      30.00S
DOVER          PTCLDY    77  74  91 S5        29.95S
GEORGETOWN     CLEAR     77  70  79 S8        29.98S
EASTON         CLEAR     79  77  92 CALM      30.01F
CAMBRIDGE      NOT AVBL
SALISBURY      CLEAR     76  69  79 CALM      29.99R
OCEAN CITY     CLEAR     79  76  90 SW6       29.98S
WALLOPS ISLAND CLEAR     80  76  87 SW7       29.99S
ACCOMACK*      NOT AVBL
$$

NCZ012>017-030>032-020500-
EASTERN NORTH CAROLINA

CITY           SKY/WX    TMP DP  RH WIND       PRES   REMARKS
ELIZABETH CITY PTCLDY    80  75  84 SW10      30.04R
AHOSKIE*       CLEAR     78  75  90 S5        30.04S
EDENTON*       PTCLDY    81  76  86 SW7       30.05S
CURRITUCK*     PTCLDY    81  74  77 SW8       30.03S
KILL DEVIL HLS PTCLDY    80  75  86 SW7       30.04S
MANTEO         PTCLDY    79  75  89 SW12      30.05S
CAPE HATTERAS  CLEAR     80  77  90 SW14      30.07S
GOLDSBORO      PTCLDY    79  78  98 VRB3      30.06S
WASHINGTON     PTCLDY    78  74  87 SW6       30.07S
GREENVILLE     PTCLDY    79  75  89 SW7       30.08S
NEW BERN       PTCLDY    79  75  87 SW5       30.09R
WILMINGTON     PTCLDY    79  76  90 SW7       30.09S
$$

VAZ048-020500-
ELSEWHERE

CITY           SKY/WX    TMP DP  RH WIND       PRES   REMARKS
HARRISBURG PA  PTCLDY    80  72  76 SW12      29.95S
BALTIMORE      MOCLDY    75  73  93 CALM      29.96S
ANNAPOLIS      PTCLDY    80  74  81 CALM      29.96S
ANDREWS AFB    CLEAR     77  74  90 S8        29.97F
WILMINGTON DE  CLEAR     78  76  93 S3        29.97S
PHILADELPHIA   CLEAR     78  74  87 S3        29.96F
WILDWOOD NJ*   PTCLDY    77  70  78 SW6       29.98R
ATLANTIC CITY  CLOUDY    77  74  90 SW5       29.97R
HENDERSON NC   CLEAR     74  69  82 CALM      30.06R
GREENSBORO     PTCLDY    78  67  68 CALM      30.07S
ROCKY MOUNT    PTCLDY    80  75  84 S10       30.05S
FAYETTEVILLE   PTCLDY    81  74  79 S12       30.07S
CHARLOTTE      PTCLDY    77  67  71 SW3       30.10S
$$

VAZ100-020500-
MARINE

STATION/POSITION TIME  TEMP    WIND        PRES    WAVE   SWELL
                       AIR SEA DIR/SP/G            HT/PER HT/PER
                 (UTC) (F)     (DEG/KT/KT) (MB)    (FT/S) (FT/S)
44066 TX TWR #4  0400   75 74  220/ 12/ 14 1014.6F   3/ 6   2/ 8
CAPE MAY NJ      0400   77 80  190/  5/  6 1014.4R
LEWES DE         0400   78 77  230/  5/  9 1014.7R
15NM E FENWICK I 0400   77 75              1014.8F   3/ 9
OCEAN-CITY-INLET 0400   78 79  220/  8/  9 1014.8S
WACHAPREAGUE VA  0400   79 83  240/  4/  6 1015.8S
THOMAS POINT MD  0400   80 79  210/  7/  8 1015.5F
GOOSES REEF MD   0400   81     230/  4/  6 1015.4R
COVE POINT MD    0400   80     230/  8/ 10 1014.9S
SOLOMONS ISLAND  0400      81                N/A
BISHOPS HEAD MD  0400   81 81  220/ 10/ 11 1014.8S
PINEY POINT MD   0400          240/  5/  7   N/A
POTOMAC MD       0400   81     240/  8/ 10 1014.8S
CAMBRIDGE MD     0400   78 80  130/  1/  2 1014.8S
LEWISETTA VA     0400   79 82  230/  6/  7 1015.1S
RAPPAHANNOCK LGT 0400          200/  7/  8 1016.3S
STINGRAY PT      0400   82     240/  8/ 10   N/A
YORK RVR RNG VA  0400   82     250/  9/ 10 1015.4S
YORKTOWN VA      0400   81 81  240/  8/  8 1015.5F
JAMESTOWN VA     0400   78     260/  6/  8   N/A
DOMINION TERM VA 0400   82     250/  8/  9 1016.0F
KIPTOPEKE VA     0400      83  230/  8/ 11   N/A
CHES BAY BRIDGE  0400   83 80  180/  6/  8 1015.7S
CAPE HENRY VA    0400   82     190/  6/  9 1015.0F
CHESAPEAKE LGHT  0300   81     210/ 15/ 15 1016.8R
WILLOUBY STN VA  0400   82     240/  9/ 10 1014.8S
S CRANEY ISL VA  0400          190/  5/  8 1015.9S
CAPE HENRY BUOY  0400      80                N/A     3/ 4   2/12
1ST LANDING BUOY 0400   83     200/  8/  8 1015.8S
CAPE CHARLES BUO 0400      80                N/A     2/ 9   2/ 9
OFFSHORE WE BUOY 0400      79                N/A     3/ 5   2/ 8
64NM E OF VA BCH 0400   79 77  210/ 14/ 16 1016.5R   3/ 9   2/ 9
DUCK PIER NC     0400   81 75  210/ 13/ 18 1016.3F
44056 DUCK FRF   0400                        N/A     3/11   2/11
OREGON INLET NC  0400   81 84  210/ 17/ 21 1017.5R
HATTERAS NC      0400   81 84  210/ 13/ 17 1018.5F
DIAMOND SHLS NC  0400   82     210/ 17/ 19 1018.1S   4/11   2/11
CAPE LOOKOUT NC  0300   81     220/  8/ 10 1018.6F
$$



USA.gov is the U.S. government's official web portal to all federal, state and local government web resources and services.